Location: Cisewo
(53.3833°N, 14.9000°E)
Time: 12:08:55
(UTC+00:00)

Cosmos-2242 - Pass Details

Date: 18 April 2021
Orbit: 589 x 618 km, 82.5° (Epoch: 14 May)

Event Time Altitude Azimuth Distance (km) Brightness Sun altitude
Exits shadow 20:25:49 26° 186° (S) 1,220 4.2 -17.7°
Maximum altitude 20:28:16 84° 100° (E) 617 2.9 -17.9°
Drops below altitude 10° 20:32:36 10° 12° (NNE) 1,959 6.1 -18.3°
Sets 20:34:49 0° 12° (NNE) 2,862 7.1 -18.5°
